Date,TemperatureHighF,TemperatureAvgF,TemperatureLowF,DewpointHighF,DewpointAvgF,DewpointLowF,HumidityHigh,HumidityAvg,HumidityLow,PressureMaxIn,PressureMinIn,WindSpeedMaxMPH,WindSpeedAvgMPH,GustSpeedMaxMPH,PrecipitationSumIn
2013-1-1,61.8,50.2,43.0,46.4,38.7,33.1,80,65,47,30.12,30.01,9,2,20,0.00
2013-1-2,59.2,50.7,44.8,41.4,33.3,28.9,56,51,45,30.21,30.10,14,4,19,0.00
2013-1-3,54.7,48.3,43.0,41.6,35.7,30.4,76,62,44,30.55,30.22,8,3,15,0.00
2013-1-4,57.4,48.1,42.1,43.4,37.5,31.4,84,68,52,30.58,30.51,7,1,9,0.00
2013-1-5,66.7,53.3,43.3,45.2,36.9,25.5,82,56,30,30.51,30.34,7,0,8,0.00
2013-1-6,67.3,55.4,52.9,34.8,25.6,20.6,39,32,28,30.34,30.25,6,2,7,0.00
2013-1-7,67.7,56.9,50.7,40.7,30.0,20.7,54,36,29,30.27,30.20,6,1,8,0.00
2013-1-8,65.2,56.7,50.2,39.2,26.6,16.3,56,32,23,30.32,30.23,7,2,8,0.00
2013-1-9,64.8,56.3,45.8,41.1,37.1,27.2,57,49,40,30.24,30.18,14,3,28,0.00
2013-1-10,64.2,57.0,51.8,47.0,41.6,37.4,68,57,50,30.24,30.14,14,2,22,0.00
2013-1-11,65.2,56.2,50.1,47.6,41.4,32.9,71,58,44,30.17,30.10,10,1,14,0.00
2013-1-12,62.2,53.7,46.2,41.8,37.3,32.2,71,54,43,30.16,30.06,14,3,21,0.00
2013-1-13,51.2,48.0,41.0,40.3,32.6,27.6,72,56,40,30.06,29.93,21,5,33,0.06
2013-1-14,53.6,46.4,41.7,33.3,29.0,25.3,71,51,37,30.14,29.92,43,13,61,0.02
2013-1-15,58.8,46.6,39.0,32.4,29.2,25.6,63,52,31,30.13,30.03,15,2,22,0.00
2013-1-16,48.7,44.2,43.3,37.5,30.9,29.3,65,59,54,30.10,30.01,5,1,13,0.00
2013-1-17,60.9,54.6,49.8,46.5,40.7,36.8,80,60,46,30.03,29.94,10,4,21,0.00
2013-1-18,59.5,55.1,51.1,51.2,48.5,46.1,87,79,73,30.00,29.75,8,2,25,0.00
2013-1-19,52.9,47.6,42.1,48.9,42.9,35.1,94,84,72,29.75,29.29,20,5,36,0.86
2013-1-20,50.7,45.4,41.5,43.4,34.7,28.4,84,67,48,29.80,29.43,17,6,30,0.00
2013-1-21,53.4,47.6,43.5,44.7,34.2,27.6,90,61,38,29.95,29.70,31,6,51,0.16
2013-1-22,50.2,44.1,39.9,39.7,33.6,27.8,84,67,53,29.98,29.83,9,3,25,0.12
2013-1-23,49.4,42.9,37.2,38.0,31.2,24.6,87,64,41,30.08,29.88,15,6,35,0.20
2013-1-24,56.6,50.3,46.2,44.8,40.7,33.6,89,70,50,30.07,29.88,18,8,30,0.16
2013-1-25,55.8,49.4,42.4,46.6,40.5,34.5,85,72,58,30.00,29.93,8,1,15,0.00
2013-1-26,63.1,54.5,49.8,46.3,41.2,26.4,86,63,30,30.11,29.98,17,3,26,0.00
2013-1-27,67.8,58.0,52.3,47.4,32.9,20.8,80,41,25,30.12,30.04,10,2,28,0.00
2013-1-28,64.6,54.4,47.4,48.0,30.7,11.0,85,43,15,30.32,30.12,21,4,34,0.02
2013-1-29,71.2,58.4,48.9,40.3,27.0,16.1,45,30,23,30.32,30.27,8,1,9,0.00
2013-1-30,73.9,62.0,53.8,38.8,26.3,16.3,32,26,20,30.37,30.31,8,2,9,0.00
2013-1-31,71.3,61.7,54.5,45.7,31.5,20.0,52,33,22,30.43,30.34,8,2,20,0.00
2013-2-1,74.1,62.0,54.3,42.7,31.6,23.3,46,32,22,30.35,30.06,13,1,29,0.00
2013-2-2,58.8,52.4,45.0,44.0,32.6,24.1,72,48,29,30.14,29.93,23,8,38,0.00
2013-2-3,53.0,45.9,41.2,31.4,23.9,17.0,58,42,26,30.31,30.13,38,11,61,0.00
2013-2-4,56.8,46.4,39.1,38.8,32.1,23.6,77,58,46,30.36,30.29,8,2,11,0.00
2013-2-5,64.4,52.8,41.5,43.4,36.9,30.6,76,56,42,30.30,30.10,21,2,29,0.00
2013-2-6,59.7,51.2,43.9,38.3,26.4,4.3,62,41,11,30.11,29.96,26,8,48,0.02
2013-2-7,53.3,45.6,40.8,27.9,23.2,15.6,58,42,23,30.20,30.08,30,8,39,0.00
2013-2-8,56.0,47.6,39.4,30.5,23.4,18.0,46,39,29,30.13,29.94,21,6,33,0.00
2013-2-9,55.2,45.9,39.9,35.1,26.6,20.6,68,47,28,30.20,29.95,39,15,52,0.04
2013-2-10,61.7,49.5,40.4,38.4,28.0,18.1,59,44,26,30.19,29.94,8,3,15,0.00
2013-2-11,49.2,45.2,41.2,40.5,33.4,27.1,76,64,46,29.97,29.85,13,5,25,0.00
2013-2-12,48.7,43.5,38.8,30.8,27.5,23.7,72,54,41,30.08,29.92,24,8,37,0.00
2013-2-13,62.2,52.9,43.5,38.2,33.3,20.7,66,48,35,30.16,30.02,21,6,32,0.00
2013-2-14,67.5,57.4,50.9,42.2,37.4,35.0,56,48,35,30.17,30.10,9,3,28,0.00
2013-2-15,67.6,56.3,50.0,40.6,36.9,33.9,57,49,37,30.12,30.05,8,4,25,0.00
2013-2-16,64.9,54.3,47.8,45.7,35.9,27.9,64,50,31,30.08,30.00,7,1,12,0.00
2013-2-17,58.9,51.0,43.0,43.5,37.6,28.3,72,61,47,30.01,29.88,8,2,19,0.00
2013-2-18,64.0,52.6,46.6,49.3,42.7,37.7,83,69,55,29.91,29.78,9,2,17,0.00
2013-2-19,53.2,48.9,46.8,46.4,44.2,42.0,91,84,66,29.81,29.74,9,2,16,0.38
2013-2-20,57.7,48.7,42.1,49.1,43.0,38.6,92,81,64,29.97,29.77,7,0,12,0.26
2013-2-21,57.7,50.1,41.9,48.1,41.8,34.6,87,73,56,29.97,29.87,7,1,15,0.00
2013-2-22,54.6,50.0,45.5,50.8,46.2,39.5,91,87,78,29.87,29.68,7,1,17,0.40
2013-2-23,52.3,46.5,41.5,41.2,36.4,30.0,90,69,51,29.91,29.59,14,5,28,0.08
2013-2-24,55.9,45.7,38.5,33.1,28.8,25.8,63,52,35,30.00,29.92,20,4,29,0.00
2013-2-25,54.0,43.8,38.3,29.3,25.1,18.0,61,48,28,30.05,29.98,16,6,41,0.00
2013-2-26,51.6,42.4,37.2,32.7,25.4,17.3,69,51,41,30.06,29.99,10,3,18,0.00
2013-2-27,52.3,41.7,35.2,37.4,30.9,25.2,80,66,49,30.01,29.81,14,3,21,0.00
2013-2-28,48.0,41.7,36.3,40.5,33.3,28.4,88,73,56,29.81,29.65,24,4,30,0.35
2013-3-1,51.0,44.6,37.8,34.5,31.5,28.1,82,61,47,29.97,29.73,22,9,36,0.02
2013-3-2,53.8,46.8,42.4,38.8,33.6,27.4,75,60,50,29.97,29.88,13,4,22,0.00
2013-3-3,58.6,49.5,44.9,45.7,39.5,33.9,86,69,57,29.92,29.73,7,0,13,0.00
2013-3-4,60.1,53.8,46.3,46.9,41.1,32.7,81,64,39,29.72,29.34,23,7,31,0.04
2013-3-5,57.0,52.0,48.3,48.9,45.7,43.7,90,79,69,29.46,29.36,8,2,16,0.51
2013-3-6,60.6,53.4,49.1,55.4,48.6,45.1,94,84,66,29.79,29.43,12,1,18,0.28
2013-3-7,56.0,53.9,51.6,54.6,51.1,45.5,96,90,77,29.84,29.74,13,2,25,0.63
2013-3-8,64.2,56.5,50.2,53.7,48.3,43.8,86,74,63,29.89,29.83,8,2,17,0.00
2013-3-9,57.4,53.4,46.8,54.0,49.4,37.9,92,86,71,29.86,29.80,6,0,14,0.06
2013-3-10,57.0,50.2,46.0,47.6,42.5,37.9,87,75,65,29.89,29.79,9,1,21,0.06
2013-3-11,57.0,49.9,45.0,45.9,41.3,38.8,82,73,59,29.91,29.83,10,3,28,0.02
2013-3-12,50.7,48.2,45.0,49.3,44.2,38.9,95,86,68,29.87,29.57,10,1,24,0.26
2013-3-13,49.8,45.7,42.5,39.7,29.9,22.1,79,55,41,29.86,29.58,17,7,39,0.00
2013-3-14,55.8,46.0,38.8,26.8,22.5,18.2,52,40,29,30.00,29.83,25,9,39,0.00
2013-3-15,57.4,49.0,41.5,39.9,29.8,20.1,67,48,36,30.03,29.95,12,4,19,0.00
2013-3-16,55.0,48.7,43.9,48.0,34.9,22.1,84,61,33,30.00,29.79,7,1,14,0.04
2013-3-17,61.0,56.3,47.8,53.9,46.3,39.7,83,70,50,29.80,29.58,14,3,18,0.06
2013-3-18,66.8,58.9,50.2,43.7,33.9,23.0,70,40,28,29.76,29.71,8,3,16,0.04
2013-3-19,56.3,52.8,49.8,50.0,42.7,23.5,93,71,31,29.73,29.60,8,1,15,0.40
2013-3-20,60.0,52.7,46.0,50.0,41.0,32.7,93,67,45,30.05,29.63,17,3,28,0.02
2013-3-21,64.2,53.6,46.9,45.8,40.3,35.0,73,61,45,30.05,29.91,7,2,16,0.00
2013-3-22,61.3,52.0,46.8,49.8,41.2,32.4,89,68,52,29.91,29.77,7,0,14,0.08
2013-3-23,59.8,48.5,44.4,45.6,40.4,35.4,90,74,55,29.77,29.59,9,1,17,0.28
2013-3-24,55.9,49.1,43.3,47.0,41.8,36.8,91,76,64,29.88,29.62,10,3,24,0.06
2013-3-25,57.4,51.7,45.7,46.8,42.0,33.9,82,70,56,29.97,29.86,14,5,28,0.02
2013-3-26,64.0,55.2,48.7,51.6,46.4,41.3,84,73,54,29.90,29.75,9,2,22,0.00
2013-3-27,63.0,54.7,48.9,51.5,47.6,43.3,88,78,53,29.77,29.67,9,1,21,0.04
2013-3-28,64.6,56.0,50.1,52.6,46.3,42.7,82,70,52,29.99,29.71,10,2,22,0.02
2013-3-29,67.8,58.4,50.4,51.1,46.3,41.6,82,65,47,30.00,29.96,15,4,28,0.00
2013-3-30,65.3,58.6,54.0,52.0,47.7,40.4,92,69,49,30.01,29.92,13,3,25,0.38
2013-3-31,61.5,57.3,53.3,54.8,49.1,39.8,92,75,52,29.93,29.72,7,1,17,0.06
2013-4-1,61.0,54.0,48.0,51.0,43.9,38.9,93,71,49,29.85,29.64,13,4,26,0.18
2013-4-2,62.6,52.9,46.2,45.7,41.8,38.2,82,67,48,29.92,29.80,8,2,17,0.06
2013-4-3,58.8,51.6,46.0,46.2,42.0,36.7,89,71,55,29.79,29.61,14,2,21,0.08
2013-4-4,58.1,49.8,44.6,49.0,43.9,40.4,90,80,65,29.68,29.56,3,0,13,0.36
2013-4-5,57.4,50.0,45.7,52.0,44.2,35.6,92,81,58,29.84,29.61,9,1,25,1.18
2013-4-6,58.3,49.0,40.6,39.5,34.8,30.4,76,59,42,30.06,29.84,14,2,22,0.00
2013-4-7,61.2,52.3,44.4,43.0,36.2,28.8,69,55,47,30.05,29.94,15,2,21,0.00
2013-4-8,68.6,58.3,49.6,44.6,36.7,27.5,63,45,34,29.95,29.87,8,2,18,0.00
2013-4-9,69.4,59.2,51.6,46.4,37.5,30.6,62,45,28,30.00,29.88,13,2,22,0.00
2013-4-10,71.2,62.3,54.1,54.2,46.8,39.7,74,57,47,30.08,29.98,14,2,23,0.00
2013-4-11,74.1,63.9,56.1,55.2,47.7,40.8,72,56,45,30.07,29.95,9,3,15,0.00
2013-4-12,71.2,61.1,51.6,50.3,44.2,36.8,66,54,44,30.04,29.96,8,1,12,0.00
2013-4-13,72.3,60.7,53.4,55.7,47.7,41.5,83,63,51,30.12,30.02,10,1,14,0.00
2013-4-14,72.1,60.8,51.8,55.8,48.8,41.4,87,66,49,30.17,30.05,7,0,14,0.00
2013-4-15,72.4,59.2,51.4,60.0,50.8,45.6,89,74,62,30.17,30.11,2,0,8,0.00
2013-4-16,63.3,58.3,55.4,53.7,50.3,48.3,85,75,66,30.15,30.10,8,1,9,0.00
2013-4-17,73.0,65.4,52.2,61.0,56.5,48.7,89,73,65,30.15,30.10,6,0,9,0.00
2013-4-18,81.0,69.1,57.0,60.6,49.9,39.1,66,51,38,30.15,30.06,8,1,9,0.00
2013-4-19,77.8,66.5,54.3,61.8,50.8,39.7,92,58,45,30.10,29.99,3,0,9,0.00
2013-4-20,57.6,54.2,52.3,53.6,51.4,49.7,93,90,83,30.14,30.05,1,0,12,0.36
2013-4-21,61.2,55.1,51.8,55.1,51.4,49.5,93,87,76,30.10,30.01,2,0,7,0.00
2013-4-23,53.0,51.1,49.8,49.3,47.0,45.5,87,86,85,30.04,30.03,8,3,15,0.00
2013-4-24,63.1,56.3,47.4,46.9,45.1,42.8,84,67,53,30.09,30.07,7,0,13,0.00
2013-4-25,71.4,58.6,46.6,51.5,44.4,35.7,87,61,46,30.08,29.87,17,4,26,0.00
2013-4-26,71.6,61.4,50.7,56.7,50.1,43.5,87,67,55,29.95,29.87,17,1,21,0.00
2013-4-27,71.8,61.6,52.3,56.1,50.4,43.3,81,68,49,29.88,29.65,13,1,20,0.00
2013-4-28,57.5,49.4,40.8,47.1,39.7,32.6,85,70,49,29.69,29.57,16,2,25,0.45
2013-4-29,56.0,45.1,40.1,39.7,35.3,32.5,87,69,46,29.79,29.67,8,1,15,0.09
2013-4-30,56.5,45.7,39.9,46.3,40.7,36.7,90,83,67,29.94,29.74,9,1,20,1.00
2013-5-1,64.6,53.2,42.9,45.3,40.0,33.3,81,62,45,30.00,29.91,9,2,14,0.09
2013-5-2,67.8,55.3,46.0,50.4,44.6,39.9,80,68,50,30.02,29.93,7,1,12,0.00
2013-5-3,65.5,56.9,50.7,52.9,47.0,40.4,87,70,57,30.06,29.97,6,0,8,0.00
2013-5-4,66.6,55.1,48.4,55.3,49.3,44.3,89,81,66,30.14,30.02,7,1,8,0.27
2013-5-5,74.2,61.2,49.3,59.4,49.7,42.3,88,68,38,30.14,30.08,8,1,12,0.00
2013-5-6,79.2,66.7,56.8,54.4,46.2,41.1,62,49,32,30.15,30.09,8,2,11,0.00
2013-5-7,82.1,70.7,60.4,52.9,46.0,40.6,54,42,31,30.13,30.04,7,1,13,0.00
2013-5-8,86.1,74.0,64.0,48.9,43.5,36.8,45,34,23,30.06,29.97,8,2,23,0.00
2013-5-9,89.4,77.7,67.1,53.9,44.5,32.4,36,31,27,30.03,29.96,8,3,13,0.00
2013-5-10,85.6,74.9,65.3,57.1,49.0,42.3,61,41,30,30.08,29.98,6,0,13,0.00
2013-5-11,78.6,68.3,58.8,61.1,53.9,45.5,79,61,48,30.08,30.01,3,0,12,0.00
2013-5-12,64.9,60.5,57.9,57.5,55.8,54.9,90,85,76,30.12,30.04,5,0,13,0.00
2013-5-13,73.2,61.3,55.9,59.5,55.7,53.9,93,83,60,30.13,29.99,6,1,13,0.00
2013-5-14,75.9,64.3,55.6,58.1,52.3,45.6,92,67,43,30.04,29.76,8,0,15,0.00
2013-5-15,69.3,61.0,55.2,51.2,45.2,38.1,68,57,33,29.77,29.60,13,2,21,0.00
2013-5-18,62.8,55.0,47.3,42.1,38.5,35.2,71,55,37,30.05,29.82,13,4,24,0.00
2013-5-19,64.0,53.7,44.0,42.6,39.1,36.3,77,59,38,30.05,30.02,9,2,36,0.00
2013-5-20,66.1,54.4,45.1,44.4,40.1,35.2,82,60,41,30.05,29.94,6,1,13,0.82
2013-5-21,54.3,49.3,47.1,49.6,44.7,42.0,88,84,78,30.05,29.92,8,0,14,0.09
2013-5-22,72.7,60.9,46.9,47.4,44.6,41.0,90,58,38,30.08,29.98,9,1,38,0.00
2013-5-23,81.2,70.2,59.8,50.6,46.2,42.7,56,43,31,30.02,29.94,10,2,18,0.00
2013-5-24,82.2,71.5,61.3,52.2,48.1,42.2,58,44,34,30.00,29.92,7,1,13,0.00
2013-5-25,78.1,66.0,55.4,59.3,52.9,42.8,81,64,44,30.04,29.97,5,0,14,0.00
2013-5-26,70.3,61.3,55.0,57.6,51.8,47.3,85,72,55,30.03,29.93,9,1,15,0.00
2013-5-27,71.2,61.1,50.7,55.5,49.8,39.9,88,68,47,29.96,29.84,7,0,28,0.00
2013-5-28,72.7,60.9,52.0,47.3,43.9,39.8,66,54,40,29.93,29.82,12,2,23,0.00
2013-5-29,70.3,61.4,50.7,47.1,40.1,35.5,76,48,30,29.98,29.90,13,3,28,0.00
2013-5-30,74.5,64.2,55.6,48.3,43.6,39.1,59,48,35,30.02,29.89,25,4,39,0.00
2013-5-31,79.3,67.4,53.2,48.8,41.3,32.6,63,41,26,30.03,29.94,15,3,28,0.00
2013-6-1,74.5,66.7,55.2,46.4,39.2,32.2,55,37,31,30.07,30.01,16,3,29,0.00
2013-6-2,78.8,66.3,53.4,50.2,41.9,36.1,58,42,30,30.05,29.99,7,1,33,0.00
2013-6-3,77.3,67.1,55.4,49.5,43.3,38.4,55,43,33,30.06,29.97,7,1,13,0.00
2013-6-4,81.1,67.8,55.8,51.7,44.1,38.2,58,43,31,30.02,29.88,5,0,10,0.00
2013-6-5,81.0,72.1,61.9,50.6,45.1,38.6,53,38,32,30.01,29.85,8,1,12,0.00
2013-6-6,78.4,68.6,59.4,54.2,44.5,34.7,58,42,37,30.06,29.96,8,2,12,0.00
2013-6-7,74.5,63.7,52.3,51.3,42.7,30.4,66,47,32,30.06,29.98,12,2,17,0.00
2013-6-8,70.3,60.0,50.7,44.0,41.0,39.0,68,51,35,30.04,29.97,10,2,23,0.00
2013-6-9,74.1,63.9,53.4,47.2,44.4,40.7,68,50,38,30.03,29.94,16,3,29,0.00
2013-6-10,79.5,68.6,57.1,52.5,47.5,42.2,62,48,38,30.07,30.00,8,2,14,0.00
2013-6-11,84.9,73.8,62.4,53.1,48.3,42.6,51,41,33,30.13,30.06,8,2,12,0.00
2013-6-12,90.1,78.7,66.9,53.4,48.1,43.7,52,35,23,30.17,30.10,6,1,13,0.00
2013-6-13,89.8,79.4,69.6,51.4,47.2,42.9,44,33,26,30.16,30.07,8,1,33,0.00
2013-6-14,90.6,78.8,67.5,54.8,50.7,46.3,51,38,29,30.10,30.03,7,1,13,0.00
2013-6-15,92.2,79.6,67.6,55.1,51.6,47.6,54,39,27,30.10,30.00,7,0,12,0.00
2013-6-16,91.8,78.8,68.5,60.3,52.5,45.8,52,41,32,30.06,29.92,6,1,12,0.00
2013-6-17,85.5,73.8,62.4,53.3,48.5,40.3,54,42,21,29.98,29.86,8,1,19,0.00
2013-6-18,72.3,61.9,52.0,49.5,42.9,39.5,64,51,35,29.96,29.87,12,2,26,0.00
2013-6-19,78.6,66.3,53.8,51.5,46.9,42.3,73,52,32,30.01,29.93,10,1,20,0.00
2013-6-20,82.0,71.6,61.9,51.6,46.9,41.6,54,42,34,30.09,29.98,7,2,16,0.00
2013-6-21,83.5,71.4,61.5,55.1,49.2,44.6,56,46,34,30.09,30.03,7,0,11,0.00
2013-6-22,81.3,70.1,58.3,53.0,49.5,45.7,64,49,32,30.17,30.08,5,0,12,0.00
2013-6-23,86.7,74.2,62.4,52.5,47.7,42.3,60,40,27,30.19,30.10,8,0,12,0.00
2013-6-24,82.9,71.7,61.2,57.8,50.8,44.6,73,48,40,30.17,30.10,6,1,12,0.00
2013-6-25,77.5,66.0,58.8,61.1,56.7,51.6,84,73,57,30.18,30.13,5,0,12,0.00
2013-6-26,76.7,66.9,58.6,58.8,56.1,52.0,87,70,50,30.18,30.14,5,0,14,0.00
2013-6-27,79.3,66.6,56.1,59.6,55.1,50.6,85,68,48,30.18,30.10,6,0,13,0.00
2013-6-28,76.8,67.4,57.9,57.0,53.0,46.1,86,62,38,30.22,30.12,3,1,13,0.00
2013-6-29,84.4,70.7,57.9,54.2,49.4,45.9,68,49,33,30.22,30.13,6,0,12,0.00
2013-6-30,86.2,72.4,59.2,53.4,50.1,44.4,72,47,32,30.17,30.04,7,0,13,0.00
2013-7-1,80.8,70.9,61.2,58.7,52.5,46.9,73,53,41,30.08,30.00,7,0,12,0.00
2013-7-2,82.8,71.0,60.1,61.1,56.4,51.4,79,61,47,30.07,30.00,8,0,12,0.00
2013-7-3,90.1,74.5,60.6,63.8,58.7,51.1,85,61,36,30.13,30.04,5,0,9,0.00
2013-7-4,86.8,77.7,67.3,65.3,58.6,48.9,66,52,41,30.15,30.09,7,1,12,0.00
2013-7-5,85.8,73.6,60.1,61.7,58.4,55.5,89,62,39,30.22,30.14,6,0,16,0.00
2013-7-6,84.0,71.8,61.5,61.7,56.9,50.9,81,61,43,30.23,30.15,3,0,13,0.00
2013-7-7,84.5,73.9,61.0,62.7,57.6,54.2,81,59,41,30.21,30.14,6,0,13,0.00
2013-7-8,86.4,75.0,64.0,55.6,52.1,46.3,69,47,28,30.18,30.12,6,1,16,0.00
2013-7-9,91.0,79.3,67.0,61.0,55.5,49.7,59,45,32,30.17,30.06,7,1,9,0.00
2013-7-10,96.4,81.4,68.2,57.3,52.2,48.6,57,38,21,30.12,29.94,8,1,15,0.00
2013-7-11,93.0,78.6,68.2,60.1,53.2,45.1,57,42,30,30.01,29.92,5,0,10,0.00
2013-7-12,85.8,75.9,66.7,65.8,56.4,45.7,68,52,33,30.09,29.98,7,1,12,0.00
2013-7-13,88.9,79.5,68.5,54.2,44.1,25.1,50,31,15,30.10,30.04,8,2,23,0.00
2013-7-14,89.0,78.0,68.7,55.7,42.0,24.8,40,28,19,30.10,30.05,12,3,38,0.00
2013-7-15,84.7,75.4,66.0,65.9,54.9,45.5,67,49,39,30.16,30.09,6,0,12,0.00
2013-7-16,87.6,74.0,64.6,61.6,56.4,53.4,76,56,39,30.17,30.12,6,0,10,0.00
2013-7-17,88.7,78.6,68.7,57.6,52.2,46.3,56,41,30,30.18,30.14,8,2,12,0.00
2013-7-18,88.5,77.3,67.3,64.8,55.3,45.4,76,47,38,30.17,30.08,7,1,12,0.00
2013-7-19,88.8,76.6,66.7,62.7,55.7,45.5,72,50,33,30.12,29.98,3,0,10,0.00
2013-7-20,83.8,75.0,66.0,61.5,57.3,51.2,73,55,42,30.03,29.96,6,0,14,0.00
2013-7-21,84.4,73.8,66.8,63.8,59.0,56.2,69,61,49,30.09,29.98,5,0,13,0.00
2013-7-22,86.4,76.3,67.6,64.9,60.1,55.7,68,58,47,30.10,30.05,6,1,14,0.00
2013-7-23,88.0,77.9,67.6,64.7,57.8,50.1,71,51,36,30.09,30.00,6,0,12,0.00
2013-7-24,90.1,79.1,68.9,63.7,55.8,50.0,55,45,36,30.12,30.03,7,1,12,0.00
2013-7-25,93.5,81.3,71.2,62.8,51.8,39.2,45,36,27,30.12,30.02,8,1,12,0.00
2013-7-26,93.6,80.7,69.6,57.6,49.7,38.6,53,35,22,30.07,29.93,7,1,14,0.00
2013-7-27,91.8,80.0,72.3,53.7,45.2,33.8,46,30,22,29.99,29.91,8,1,21,0.00
2013-7-28,87.5,76.6,66.7,54.7,50.7,44.9,51,41,31,30.14,29.97,7,1,16,0.00
2013-7-29,88.5,77.7,67.2,53.2,47.1,40.1,55,35,28,30.25,30.12,13,3,46,0.00
2013-7-30,88.2,74.4,66.9,55.4,50.9,46.5,59,45,30,30.26,30.19,7,1,9,0.00
2013-7-31,87.1,75.7,65.0,54.2,50.1,44.7,61,43,26,30.22,30.09,10,2,16,0.00
2013-8-1,92.2,75.0,66.1,65.0,54.4,47.3,81,50,33,30.12,30.00,3,0,8,0.00
2013-8-2,96.6,82.2,66.9,64.4,58.5,38.8,85,48,20,30.10,29.99,18,1,21,0.18
2013-8-3,96.4,81.6,69.6,67.0,57.0,44.4,74,45,30,30.16,30.06,6,1,10,0.00
2013-8-4,92.0,79.5,70.0,69.5,61.5,51.0,83,55,40,30.16,30.12,5,0,10,0.00
2013-8-5,93.4,80.4,69.4,71.1,64.6,57.7,84,60,39,30.17,30.03,8,1,14,0.00
2013-8-6,97.9,85.2,71.2,64.4,57.1,47.9,72,41,21,30.09,29.99,7,1,10,0.00
2013-8-7,94.5,84.5,73.6,57.9,45.9,36.9,36,26,19,30.01,29.93,8,2,16,0.00
2013-8-8,89.8,81.5,70.4,63.8,52.2,42.1,76,38,27,30.19,29.95,20,4,33,0.00
2013-8-9,88.0,76.7,66.3,62.4,55.5,50.2,80,51,29,30.24,30.19,8,1,17,0.00
2013-8-10,89.3,77.1,66.7,62.4,53.9,49.4,58,45,33,30.22,30.13,6,1,12,0.00
2013-8-11,90.7,75.5,64.9,59.0,53.8,48.8,74,49,26,30.16,30.08,5,0,12,0.00
2013-8-12,90.5,78.1,65.8,63.5,56.8,49.3,73,49,34,30.12,30.02,6,0,13,0.00
2013-8-13,88.3,76.6,65.1,67.0,56.7,39.8,82,52,31,30.08,30.00,6,1,13,0.00
2013-8-14,87.0,73.7,63.7,66.7,63.6,57.7,87,72,50,30.12,30.06,7,0,13,0.00
2013-8-15,89.4,76.5,66.4,64.6,61.0,54.2,85,61,40,30.15,30.08,2,0,12,0.00
2013-8-16,90.1,77.7,69.4,60.7,55.9,48.6,72,49,34,30.15,30.08,3,0,12,0.00
2013-8-17,89.4,77.8,70.3,65.4,56.6,47.3,76,49,35,30.13,30.06,7,1,12,0.00
2013-8-18,89.2,77.5,66.4,70.1,64.3,58.0,80,65,43,30.11,30.04,5,0,10,0.00
2013-8-19,90.5,79.3,67.8,69.0,61.9,52.9,88,58,34,30.17,30.07,5,0,11,0.00
2013-8-20,89.4,80.4,71.2,69.5,59.0,47.9,72,49,30,30.18,30.14,6,1,12,0.00
2013-8-21,87.4,76.1,66.0,68.4,63.3,58.7,84,66,49,30.19,30.10,6,0,15,0.00
2013-8-22,92.1,76.8,66.4,69.0,65.4,62.7,90,70,47,30.13,29.99,2,0,9,0.00
2013-8-23,91.6,79.0,69.4,72.5,67.1,62.6,82,68,53,30.03,29.97,2,0,10,0.00
2013-8-24,90.5,77.8,68.8,66.5,63.0,57.3,85,63,39,30.04,29.97,2,0,9,0.00
2013-8-25,86.7,74.4,66.4,70.8,65.8,58.9,88,75,59,30.03,29.86,5,0,12,0.00
2013-8-26,84.5,74.6,67.5,69.2,65.6,61.9,90,75,55,29.93,29.83,6,1,9,0.00
2013-8-27,84.1,73.9,66.0,66.1,63.3,60.5,85,70,54,29.98,29.90,8,1,13,0.00
2013-8-28,83.4,73.5,66.9,66.3,63.5,60.4,84,72,51,30.03,29.95,7,1,21,0.00
2013-8-29,78.6,70.0,65.1,66.7,63.3,59.0,91,79,64,30.08,29.99,10,2,24,1.60
2013-8-30,79.5,69.8,62.4,65.2,61.0,56.5,85,74,55,30.16,30.04,6,0,14,0.00
2013-8-31,79.3,69.7,62.1,64.5,60.0,56.0,88,73,50,30.19,30.13,6,0,13,0.00
2013-9-1,80.4,70.4,62.4,61.9,57.9,53.2,82,66,46,30.20,30.13,7,1,16,0.00
2013-9-2,80.4,70.4,62.4,62.1,57.0,49.7,85,64,45,30.23,30.15,8,1,17,0.00
2013-9-3,81.1,70.6,62.2,62.2,58.5,53.5,85,68,39,30.23,30.16,8,2,15,0.00
2013-9-4,80.0,70.1,62.4,62.6,58.2,51.2,86,68,44,30.21,30.06,7,1,15,0.00
2013-9-5,81.7,70.7,63.9,63.4,61.6,57.4,91,75,50,30.08,29.97,6,1,13,0.00
2013-9-6,83.0,70.9,61.0,59.4,55.0,49.8,84,59,38,30.01,29.92,8,2,29,0.00
2013-9-7,70.3,65.3,59.5,62.5,58.0,46.9,92,78,45,30.06,29.97,9,1,17,4.56
2013-9-8,80.8,70.0,61.0,62.7,58.7,56.2,89,69,48,30.19,30.04,7,1,12,0.00
2013-9-9,82.6,71.5,62.4,63.5,58.8,55.2,79,65,49,30.21,30.14,7,1,13,0.00
2013-9-10,82.0,72.4,63.3,62.4,57.4,52.2,72,60,49,30.20,30.07,6,1,12,0.00
2013-9-11,83.2,72.1,64.0,65.8,58.6,51.6,86,63,50,30.10,30.01,5,0,12,0.00
2013-9-12,83.0,71.0,62.4,64.0,60.4,53.6,88,70,48,30.14,30.06,5,0,12,0.00
2013-9-13,82.1,70.3,65.1,66.9,63.0,60.8,91,79,53,30.20,30.12,6,0,10,0.00
2013-9-14,80.5,68.5,64.0,65.5,62.0,58.8,92,80,56,30.20,30.05,7,1,15,0.00
2013-9-15,84.9,71.4,62.2,67.1,60.0,55.6,83,69,52,30.09,29.95,7,0,11,0.00
2013-9-16,80.0,70.6,67.3,63.4,58.3,55.4,75,65,57,30.02,29.93,1,0,8,0.00
2013-9-17,89.4,82.5,73.0,61.0,56.9,51.5,55,42,32,29.98,29.93,7,1,13,0.00
2013-9-18,83.5,74.6,67.3,64.8,57.5,51.1,71,56,51,30.01,29.95,7,2,12,0.00
2013-9-19,88.9,77.1,69.4,61.4,55.8,53.2,60,49,36,30.00,29.94,6,1,25,0.00
2013-9-20,85.3,73.1,65.5,66.4,58.7,51.2,88,62,50,30.14,30.00,6,0,12,0.00
2013-9-21,82.2,70.6,63.5,66.0,61.9,58.2,88,75,57,30.23,30.13,7,1,12,0.00
2013-9-22,80.1,69.2,60.4,63.6,59.4,51.7,88,72,55,30.23,30.18,5,0,14,0.00
2013-9-23,82.9,69.0,60.9,66.0,60.5,56.0,89,76,53,30.21,30.09,6,0,13,0.00
2013-9-24,82.7,69.5,60.1,65.4,59.6,52.8,88,72,56,30.10,30.00,7,0,10,0.00
2013-9-25,81.7,70.4,63.5,57.9,49.6,45.5,66,49,31,30.00,29.95,5,1,12,0.00
2013-9-26,83.1,74.7,64.0,63.8,57.7,45.4,81,57,37,30.01,29.93,6,1,12,0.00
2013-9-27,82.9,71.5,63.0,60.1,55.6,50.2,81,58,45,30.01,29.93,6,0,12,0.00
2013-9-28,69.4,63.4,60.1,64.0,59.3,54.5,92,87,59,29.97,29.88,8,0,21,3.27
2013-9-29,73.9,65.1,59.7,60.9,58.3,50.3,92,80,57,29.98,29.89,6,1,16,0.00
2013-9-30,83.5,71.8,63.5,66.6,61.1,51.6,82,70,56,29.98,29.89,6,0,16,0.00
2013-10-1,86.9,74.0,65.5,66.0,61.8,55.7,82,67,49,29.94,29.88,7,1,12,0.00
2013-10-2,89.4,77.2,69.4,59.9,52.7,47.1,56,43,32,29.92,29.82,8,3,9,0.00
2013-10-3,83.5,73.8,66.9,62.5,57.8,51.1,78,58,44,30.00,29.86,9,2,14,0.00
2013-10-4,82.3,72.4,65.9,63.8,59.5,55.7,73,64,51,30.10,29.98,7,1,14,0.00
2013-10-5,82.9,72.9,66.0,56.0,50.7,47.1,62,46,35,30.16,30.08,7,2,15,0.00
2013-10-6,79.4,68.8,61.2,62.2,55.2,47.2,83,62,52,30.16,30.09,10,1,28,0.00
2013-10-7,76.6,67.3,62.4,63.8,59.8,57.2,88,78,58,30.14,30.09,3,0,12,0.00
2013-10-8,79.5,67.3,59.5,60.3,57.6,54.1,89,73,48,30.14,30.08,7,1,13,0.00
2013-10-9,78.9,66.5,58.1,60.3,57.9,53.0,90,75,52,30.13,30.01,5,0,12,0.00
2013-10-10,76.6,65.8,58.4,59.8,56.2,53.0,84,72,56,30.06,29.93,3,0,12,0.00
2013-10-11,80.4,68.4,59.5,60.2,52.8,45.6,78,59,44,29.97,29.88,7,2,9,0.00
2013-10-12,78.4,68.6,59.4,55.3,46.3,40.9,62,45,37,30.08,29.94,8,2,25,0.00
2013-10-13,79.0,66.1,58.1,57.2,47.0,37.3,66,50,44,30.11,30.05,7,1,9,0.00
2013-10-14,79.0,67.7,60.6,54.8,47.4,40.0,59,49,42,30.14,30.06,5,0,8,0.00
2013-10-15,82.0,70.1,61.3,54.6,46.7,39.2,57,44,34,30.17,30.10,8,1,14,0.00
2013-10-16,87.4,74.0,65.5,54.0,42.3,28.8,52,33,25,30.15,30.06,7,1,13,0.00
2013-10-17,83.1,71.2,64.6,53.9,46.2,38.4,58,41,31,30.09,30.03,7,0,14,0.00
2013-10-18,81.7,69.6,62.2,54.5,45.4,37.3,54,42,36,30.05,29.99,7,0,8,0.00
2013-10-19,83.0,70.2,63.0,54.3,46.2,39.0,57,43,31,30.10,29.99,7,1,11,0.00
2013-10-20,80.6,69.4,61.9,56.4,47.1,38.4,71,47,27,30.12,30.06,8,1,9,0.00
2013-10-21,79.7,69.8,63.1,51.7,45.2,38.4,55,42,34,30.10,29.98,8,2,11,0.00
2013-10-22,71.8,64.6,60.4,56.0,50.5,45.0,83,61,40,30.00,29.92,7,1,12,0.45
2013-10-23,73.0,62.8,56.7,62.7,56.7,53.3,91,81,64,30.07,29.97,7,0,16,1.69
2013-10-24,78.6,68.2,62.0,62.3,56.8,53.1,78,68,53,30.06,29.99,7,1,25,0.00
2013-10-25,75.4,67.2,63.7,60.5,55.7,49.4,77,67,55,29.99,29.89,8,2,15,0.00
2013-10-26,70.9,64.9,60.1,52.1,49.2,44.1,74,57,42,30.20,29.97,10,1,16,0.00
2013-10-27,78.8,67.7,58.8,58.5,53.5,46.4,80,61,47,30.22,30.13,7,0,8,0.00
2013-10-28,81.3,68.8,60.4,59.5,54.1,43.4,76,61,42,30.17,30.00,3,0,9,0.00
2013-10-29,79.3,67.0,57.0,50.0,40.7,25.2,53,39,20,30.00,29.92,35,8,54,0.00
2013-10-30,69.1,58.7,51.2,44.8,36.8,27.9,76,46,33,30.15,30.00,30,4,45,0.00
2013-10-31,67.7,55.8,49.0,48.0,43.2,37.4,77,64,47,30.21,30.12,7,0,11,0.00
2013-11-1,68.5,57.7,50.3,46.9,42.8,38.7,71,59,44,30.23,30.14,6,0,12,0.00
2013-11-2,75.4,63.2,52.5,45.8,38.7,30.1,59,41,30,30.16,30.04,7,1,9,0.00
2013-11-3,79.5,67.4,60.1,45.5,36.9,25.1,48,34,22,30.09,30.02,8,1,13,0.00
2013-11-4,70.9,62.3,55.6,49.3,41.7,34.5,66,48,33,30.06,29.99,15,3,25,0.00
2013-11-5,74.0,65.2,60.8,49.9,48.3,46.7,65,55,38,30.10,30.00,30,10,55,0.00
2013-11-6,82.2,69.7,61.7,51.8,47.5,44.1,56,46,33,30.15,30.08,10,1,13,0.00
2013-11-7,79.7,67.0,59.7,52.8,45.9,34.3,62,47,33,30.11,30.04,7,0,12,0.00
2013-11-8,78.4,66.4,58.8,48.6,42.6,34.2,57,43,33,30.10,30.02,18,4,33,0.00
2013-11-9,73.6,63.4,56.5,48.8,43.0,34.5,62,48,34,30.25,30.08,13,1,48,0.00
2013-11-10,72.1,62.6,54.3,46.3,37.7,26.1,50,40,22,30.28,30.17,22,3,36,0.00
2013-11-11,78.1,67.8,60.6,44.6,37.6,26.1,48,33,24,30.17,30.05,18,3,36,0.00
2013-11-12,73.9,63.1,55.9,45.6,43.1,40.3,65,49,34,30.14,30.06,13,2,30,0.00
2013-11-13,68.2,58.2,53.8,50.5,46.1,42.2,78,65,47,30.12,30.05,8,1,11,0.00
2013-11-14,67.9,57.7,52.3,49.3,46.8,44.8,81,68,48,30.19,30.10,6,0,12,0.00
2013-11-15,64.2,55.0,46.4,45.3,31.6,22.2,76,44,21,30.18,29.88,23,9,38,0.00
2013-11-16,57.2,45.7,41.1,39.2,29.6,20.9,76,55,37,29.94,29.90,9,3,25,0.00
2013-11-17,58.8,48.4,41.2,36.7,29.2,21.2,68,48,32,29.93,29.83,8,1,16,0.00
2013-11-18,55.9,47.4,39.0,38.8,35.0,29.6,86,63,47,29.84,29.70,18,4,31,0.27
2013-11-19,66.7,57.8,49.1,39.8,36.7,32.8,60,46,36,29.89,29.77,22,5,31,0.27
2013-11-20,58.8,52.5,45.0,36.6,30.4,22.1,56,43,34,30.03,29.89,18,9,25,0.00
2013-11-21,59.5,48.9,42.1,30.9,24.6,16.4,59,40,20,30.03,29.80,9,3,23,0.00
2013-11-22,59.7,52.4,46.1,42.0,35.7,28.1,67,53,45,29.80,29.74,9,2,19,0.00
2013-11-23,61.0,50.4,45.1,39.5,35.1,27.2,67,56,37,29.87,29.76,10,1,22,0.00
2013-11-24,58.8,48.9,42.6,41.8,33.0,22.9,70,54,45,29.93,29.80,8,2,28,0.00
2013-11-25,61.0,49.3,42.4,37.3,32.2,26.3,69,53,34,30.09,29.93,7,2,9,0.00
2013-11-26,58.8,48.9,42.4,41.4,33.0,26.4,77,55,37,30.10,30.06,7,3,12,0.00
2013-11-27,58.8,48.0,43.5,41.6,37.7,31.8,83,68,51,30.10,30.02,7,1,12,0.09
2013-11-28,54.7,46.5,42.1,42.1,36.7,32.4,81,69,51,30.19,30.08,6,1,12,0.00
2013-11-29,59.6,47.4,40.8,38.1,33.8,29.2,75,60,40,30.24,30.17,6,1,9,0.00
2013-11-30,60.6,48.9,40.8,40.3,33.9,24.0,76,58,33,30.22,29.80,12,3,30,0.00
2013-12-1,59.4,47.4,39.0,36.2,28.1,17.5,73,49,31,29.99,29.70,30,7,54,0.00
2013-12-2,60.6,48.6,42.6,40.5,35.0,29.5,75,60,45,30.12,29.97,7,3,10,0.00
2013-12-3,58.8,49.8,43.6,43.7,38.6,32.0,84,66,47,30.22,30.11,7,2,19,0.00
2013-12-4,58.8,51.3,45.0,48.7,44.6,37.7,90,78,64,30.27,30.19,5,1,20,0.00
2013-12-5,62.3,51.6,44.6,47.2,43.1,37.6,89,74,49,30.30,30.23,6,0,7,0.00
2013-12-6,63.0,52.2,44.8,45.7,37.5,28.9,81,59,40,30.25,30.16,8,2,12,0.00
2013-12-7,61.5,49.2,42.6,46.2,39.3,32.4,82,69,55,30.23,30.15,0,0,0,0.00
2013-12-8,60.6,48.0,42.1,44.4,38.4,30.3,83,70,54,30.29,30.18,0,0,0,0.00
2013-12-9,59.5,50.5,43.5,45.5,40.9,37.3,85,70,53,30.33,30.26,9,1,15,0.00
2013-12-10,60.5,50.0,44.4,43.9,39.1,35.2,84,67,41,30.35,30.28,10,3,20,0.00
2013-12-11,62.2,52.3,44.6,42.6,33.2,24.6,70,50,30,30.34,30.27,12,2,19,0.00
2013-12-12,63.1,53.0,47.6,43.8,37.9,31.6,78,57,46,30.33,30.25,3,0,7,0.00
2013-12-13,63.3,52.1,46.2,48.1,44.5,39.6,84,76,57,30.29,30.19,7,0,16,0.00
2013-12-14,60.6,52.9,48.2,49.7,46.2,43.2,89,79,56,30.42,30.22,6,0,12,0.09
2013-12-15,58.8,50.4,45.1,45.4,42.3,37.7,87,74,54,30.44,30.35,8,1,15,0.00
2013-12-16,61.3,50.8,44.3,46.7,41.1,36.1,84,70,55,30.37,30.25,5,0,8,0.00
2013-12-17,62.2,51.9,46.8,47.3,44.6,39.9,88,77,52,30.32,30.24,3,0,10,0.00
2013-12-18,59.2,51.7,47.8,50.9,44.9,39.6,90,79,61,30.30,30.20,3,0,12,0.00
2013-12-19,58.6,51.5,45.7,47.9,40.2,33.4,85,66,56,30.20,29.86,15,2,36,2.36
2013-12-20,51.4,45.7,42.3,33.9,30.4,27.0,72,55,42,30.31,29.93,52,19,66,5.18
2013-12-21,59.8,50.1,45.1,41.2,35.2,29.9,73,57,40,30.41,30.29,9,3,23,0.00
2013-12-22,61.5,49.7,44.4,47.0,41.3,37.0,87,73,56,30.41,30.33,7,1,10,0.00
2013-12-23,62.0,51.0,45.3,48.1,40.8,36.5,80,68,55,30.35,30.20,7,1,8,0.00
2013-12-24,59.7,50.9,46.2,48.8,39.5,31.0,90,66,50,30.19,29.94,13,3,23,0.00
2013-12-25,53.8,50.3,46.2,51.0,45.8,34.6,95,85,61,29.94,29.62,18,6,41,8.52
2013-12-26,57.0,49.6,46.2,38.3,36.3,33.4,72,61,44,30.10,29.85,18,6,32,0.00
2013-12-27,65.1,53.1,45.1,49.3,42.1,37.3,76,67,54,30.11,29.97,8,1,20,0.00
2013-12-28,60.6,51.8,46.2,48.8,38.8,25.3,88,64,36,30.06,29.92,24,6,46,0.09
2013-12-29,60.0,49.0,43.8,30.1,25.7,19.6,53,41,27,30.34,30.06,25,8,38,0.00
2013-12-30,56.8,46.9,41.5,42.2,31.5,16.8,80,56,35,30.36,30.25,9,2,12,0.00
2013-12-31,63.0,50.4,42.6,35.9,29.0,22.8,75,45,32,30.26,30.10,7,1,14,0.00
2014-1-1,66.7,56.3,51.4,47.5,42.4,30.7,79,60,42,30.12,30.04,8,1,20,0.00
2014-1-2,58.8,54.1,50.8,47.8,46.4,44.5,82,75,65,30.12,30.05,3,0,14,0.00